| time (UTC) | temp F | wind direction | speed knots | gust knots | rain 1hr in | rain 24hr in | rain mn in | humidity % | barometer mb |
| 20260504081810 | 90 | 0.0 | 0.0 | 0.00 | 0.00 | 0.00 | 43 | 929.4 | |
| 20260504080803 | 90 | 0.0 | 0.0 | 0.00 | 0.00 | 0.00 | 43 | 929.6 | |
| 20260504050600 | 87 | 0.0 | 0.0 | 0.00 | 0.00 | 0.00 | 50 | 932.6 | |
| 20260504045553 | 87 | 0.0 | 0.0 | 0.00 | 0.00 | 0.00 | 51 | 932.7 | |
| 20260504044546 | 87 | 0.0 | 0.0 | 0.00 | 0.00 | 0.00 | 52 | 932.8 | |
| 20260504043539 | 87 | 0.0 | 0.0 | 0.00 | 0.00 | 0.00 | 51 | 932.9 | |
| 20260504042532 | 87 | 0.0 | 0.0 | 0.00 | 0.00 | 0.00 | 51 | 932.9 | |
| 20260504041525 | 87 | 0.0 | 0.0 | 0.00 | 0.00 | 0.00 | 52 | 933.1 | |
| 20260504040518 | 87 | 0.0 | 0.0 | 0.00 | 0.00 | 0.00 | 52 | 933.1 | |
| 20260504035511 | 87 | 0.0 | 0.0 | 0.00 | 0.00 | 0.00 | 55 | 933.1 | |
| 20260504034505 | 87 | 0.0 | 0.0 | 0.00 | 0.00 | 0.00 | 51 | 933.2 | |
| 20260504033458 | 87 | 0.0 | 0.0 | 0.00 | 0.00 | 0.00 | 53 | 933.3 | |
| 20260504032451 | 87 | 0.0 | 0.0 | 0.00 | 0.00 | 0.00 | 53 | 933.3 | |
| 20260504031444 | 87 | 0.0 | 0.0 | 0.00 | 0.00 | 0.00 | 53 | 933.2 | |
| 20260504030437 | 87 | 0.0 | 0.0 | 0.00 | 0.00 | 0.00 | 54 | 933.1 | |
| 20260504025430 | 87 | 0.0 | 0.0 | 0.00 | 0.00 | 0.00 | 54 | 933.0 | |
| 20260504024424 | 87 | 0.0 | 0.0 | 0.00 | 0.00 | 0.00 | 55 | 933.0 | |
| 20260504023417 | 87 | 0.0 | 0.0 | 0.00 | 0.00 | 0.00 | 54 | 932.9 | |
| 20260504022410 | 87 | 0.0 | 0.0 | 0.00 | 0.00 | 0.00 | 55 | 932.9 | |
| 20260504021403 | 87 | 0.0 | 0.0 | 0.00 | 0.00 | 0.00 | 54 | 932.7 | |
| 20260504020356 | 87 | 0.0 | 0.0 | 0.00 | 0.00 | 0.00 | 55 | 932.8 | |
| 20260504015349 | 87 | 0.0 | 0.0 | 0.00 | 0.00 | 0.00 | 55 | 932.6 | |
| 20260504014345 | 87 | 0.0 | 0.0 | 0.00 | 0.00 | 0.00 | 54 | 932.6 | |
| 20260504013335 | 87 | 0.0 | 0.0 | 0.00 | 0.00 | 0.00 | 54 | 932.4 | |
| 20260504012328 | 87 | 0.0 | 0.0 | 0.00 | 0.00 | 0.00 | 55 | 932.3 | |
| 20260504011322 | 87 | 0.0 | 0.0 | 0.00 | 0.00 | 0.00 | 55 | 931.9 | |
| 20260504010315 | 87 | 0.0 | 0.0 | 0.00 | 0.00 | 0.00 | 54 | 931.9 | |
| 20260504005308 | 87 | 0.0 | 0.0 | 0.00 | 0.00 | 0.00 | 55 | 931.4 | |
| 20260504004301 | 87 | 0.0 | 0.0 | 0.00 | 0.00 | 0.00 | 54 | 931.2 | |
| 20260504003254 | 88 | 0.0 | 0.0 | 0.00 | 0.00 | 0.00 | 54 | 931.0 | |
| 20260504002247 | 88 | 0.0 | 0.0 | 0.00 | 0.00 | 0.00 | 53 | 930.9 | |
| 20260504001240 | 88 | 0.0 | 0.0 | 0.00 | 0.00 | 0.00 | 53 | 930.8 | |
| 20260504000234 | 88 | 0.0 | 0.0 | 0.00 | 0.00 | 0.00 | 54 | 930.6 | |
| 20260503235226 | 88 | 0.0 | 0.0 | 0.00 | 0.00 | 0.00 | 54 | 930.6 | |
| 20260503234219 | 88 | 0.0 | 0.0 | 0.00 | 0.00 | 0.00 | 54 | 930.6 | |
| 20260503233212 | 88 | 0.0 | 0.0 | 0.00 | 0.00 | 0.00 | 53 | 930.5 | |
| 20260503232205 | 88 | 0.0 | 0.0 | 0.00 | 0.00 | 0.00 | 54 | 930.4 | |
| 20260503231158 | 88 | 0.0 | 0.0 | 0.00 | 0.00 | 0.00 | 54 | 930.4 | |
| 20260503230152 | 88 | 0.0 | 0.0 | 0.00 | 0.00 | 0.00 | 54 | 930.3 | |
| 20260503225145 | 88 | 0.0 | 0.0 | 0.00 | 0.00 | 0.00 | 54 | 930.3 | |
| 20260503224138 | 88 | 0.0 | 0.0 | 0.00 | 0.00 | 0.00 | 54 | 930.3 | |
| 20260503223131 | 88 | 0.0 | 0.0 | 0.00 | 0.00 | 0.00 | 54 | 930.3 | |
| 20260503222124 | 88 | 0.0 | 0.0 | 0.00 | 0.00 | 0.00 | 54 | 930.3 | |
| 20260503221118 | 88 | 0.0 | 0.0 | 0.00 | 0.00 | 0.00 | 55 | 930.3 | |
| 20260503220111 | 88 | 0.0 | 0.0 | 0.00 | 0.00 | 0.00 | 55 | 930.1 | |
| 20260503215104 | 88 | 0.0 | 0.0 | 0.00 | 0.00 | 0.00 | 55 | 930.3 | |
| 20260503214057 | 88 | 0.0 | 0.0 | 0.00 | 0.00 | 0.00 | 55 | 930.5 | |
| 20260503213050 | 88 | 0.0 | 0.0 | 0.00 | 0.00 | 0.00 | 55 | 930.5 | |
| 20260503212043 | 88 | 0.0 | 0.0 | 0.00 | 0.00 | 0.00 | 54 | 930.4 | |
| 20260503211036 | 88 | 0.0 | 0.0 | 0.00 | 0.00 | 0.00 | 54 | 930.6 | |
| 20260503210030 | 88 | 0.0 | 0.0 | 0.00 | 0.00 | 0.00 | 54 | 930.7 | |
| 20260503205023 | 88 | 0.0 | 0.0 | 0.00 | 0.00 | 0.00 | 54 | 930.5 | |
| 20260503204016 | 88 | 0.0 | 0.0 | 0.00 | 0.00 | 0.00 | 54 | 930.7 | |
| 20260503203009 | 88 | 0.0 | 0.0 | 0.00 | 0.00 | 0.00 | 54 | 931.0 | |
| 20260503202002 | 88 | 0.0 | 0.0 | 0.00 | 0.00 | 0.00 | 54 | 930.9 | |
| 20260503200955 | 88 | 0.0 | 0.0 | 0.00 | 0.00 | 0.00 | 54 | 931.0 | |
| 20260503195948 | 88 | 0.0 | 0.0 | 0.00 | 0.00 | 0.00 | 54 | 930.9 | |
| 20260503194942 | 88 | 0.0 | 0.0 | 0.00 | 0.00 | 0.00 | 54 | 930.8 | |
| 20260503193935 | 88 | 0.0 | 0.0 | 0.00 | 0.00 | 0.00 | 54 | 930.8 | |
| 20260503192928 | 88 | 0.0 | 0.0 | 0.00 | 0.00 | 0.00 | 55 | 930.9 | |
| 20260503191921 | 88 | 0.0 | 0.0 | 0.00 | 0.00 | 0.00 | 55 | 931.1 | |
| 20260503190914 | 88 | 0.0 | 0.0 | 0.00 | 0.00 | 0.00 | 55 | 931.3 | |
| 20260503185907 | 88 | 0.0 | 0.0 | 0.00 | 0.00 | 0.00 | 55 | 931.6 | |
| 20260503184901 | 88 | 0.0 | 0.0 | 0.00 | 0.00 | 0.00 | 54 | 931.7 | |
| 20260503183854 | 88 | 0.0 | 0.0 | 0.00 | 0.00 | 0.00 | 54 | 931.5 | |
| 20260503182847 | 88 | 0.0 | 0.0 | 0.00 | 0.00 | 0.00 | 54 | 931.7 | |
| 20260503181840 | 88 | 0.0 | 0.0 | 0.00 | 0.00 | 0.00 | 54 | 931.7 | |
| 20260503180833 | 88 | 0.0 | 0.0 | 0.00 | 0.00 | 0.00 | 54 | 931.7 | |
| 20260503175826 | 88 | 0.0 | 0.0 | 0.00 | 0.00 | 0.00 | 54 | 931.8 | |
| 20260503174820 | 88 | 0.0 | 0.0 | 0.00 | 0.00 | 0.00 | 53 | 931.9 | |
| 20260503173813 | 88 | 0.0 | 0.0 | 0.00 | 0.00 | 0.00 | 53 | 931.9 | |
| 20260503172806 | 89 | 0.0 | 0.0 | 0.00 | 0.00 | 0.00 | 52 | 931.8 | |
| 20260503171759 | 89 | 0.0 | 0.0 | 0.00 | 0.00 | 0.00 | 52 | 931.9 | |
| 20260503170752 | 89 | 0.0 | 0.0 | 0.00 | 0.00 | 0.00 | 52 | 932.1 | |
| 20260503150627 | 89 | 0.0 | 0.0 | 0.00 | 0.00 | 0.00 | 53 | 931.0 | |
| 20260503130505 | 90 | 0.0 | 0.0 | 0.00 | 0.00 | 0.00 | 48 | 928.6 |